Weather History for KHRO - July, 2013

Change the Weather History Date:

Sunday, July 28, 2013

  Actual Average Record
Temperature  
Mean Temperature 69 °F 79 °F  
Max Temperature 77 °F 90 °F 107 °F (1936)
Min Temperature 61 °F 68 °F 53 °F (1920)
Degree Days  
Heating Degree Days 0 0  
Month to date heating degree days 0 0  
Since 1 June heating degree days 5 6  
Since 1 July heating degree days 0 0  
Cooling Degree Days 4 14  
Month to date cooling degree days 319 373  
Year to date cooling degree days 771 777  
Since 1 June cooling degree days 625 638  
Growing Degree Days 18 (Base 50)    
Moisture  
Dew Point 62 °F    
Average Humidity 79    
Maximum Humidity 97    
Minimum Humidity 60    
Precipitation  
Precipitation T in 0.10 in 5.55 in (1946)
Month to date precipitation 4.91 2.83  
Year to date precipitation 23.99 25.07  
Snow  
Snow 0.00 in 0.00 in - ()
Month to date snowfall 0.0 0.0  
Since 1 June snowfall 0.0 0.0  
Since 1 July snowfall 0.0 0.0  
Snow Depth 0.00 in    
Sea Level Pressure  
Sea Level Pressure 30.04 in    
Wind  
Wind Speed 3 mph (ESE)    
Max Wind Speed 12 mph    
Max Gust Speed 13 mph    
Visibility 10 miles    
Events Rain    
T = Trace of Precipitation, MM = Missing Value Source: NWS Daily Summary

Daily Weather History Graph

Daily Weather History Graph

Search for Another Location

Airport or City:

Trip Planner

Search our weather history database for the weather conditions in past years. The results will help you decide how hot, cold, wet, or windy it might be!

Date:

Astronomy

Jul. 28, 2013 Rise Set
Actual Time 6:16 AM CDT 8:21 PM CDT
Civil Twilight 5:47 AM CDT 8:49 PM CDT
Nautical Twilight 5:12 AM CDT 9:24 PM CDT
Astronomical Twilight 4:35 AM CDT 10:02 PM CDT
Moon 11:57 PM CDT (7/28) 12:45 PM CDT (7/28)
Length of Visible Light 15h 02m
Length of Day
14h 04m
Waning Gibbous, 60% of the Moon is Illuminated
Jul 28
Waning Gibbous
Jul 29
Last Quarter
Aug 6
New
Aug 14
First Quarter
Aug 20
Full

Hourly Weather History & Observations

Time (CDT) Temp. Dew Point Humidity Pressure Visibility Wind Dir Wind Speed Gust Speed Precip Events Conditions
12:53 AM 61.0 °F 59.0 °F 93% 30.01 in 10.0 mi Calm Calm - N/A   Clear
1:53 AM 61.0 °F 59.0 °F 93% 30.01 in 10.0 mi Calm Calm - N/A   Clear
2:53 AM 62.1 °F 59.0 °F 90% 30.01 in 10.0 mi Calm Calm - N/A   Mostly Cloudy
3:53 AM 63.0 °F 60.1 °F 90% 30.00 in 10.0 mi Calm Calm - N/A   Overcast
4:53 AM 62.1 °F 60.1 °F 93% 30.00 in 10.0 mi Calm Calm - N/A   Scattered Clouds
5:53 AM 62.1 °F 60.1 °F 93% 30.03 in 10.0 mi Calm Calm - N/A   Overcast
6:53 AM 63.0 °F 61.0 °F 93% 30.03 in 10.0 mi Calm Calm - N/A   Overcast
7:53 AM 64.9 °F 61.0 °F 87% 30.03 in 10.0 mi South 3.5 mph - N/A   Clear
8:53 AM 66.0 °F 61.0 °F 84% 30.06 in 10.0 mi Calm Calm - N/A   Clear
9:53 AM 68.0 °F 61.0 °F 78% 30.04 in 10.0 mi SE 6.9 mph - N/A   Partly Cloudy
10:53 AM 68.0 °F 59.0 °F 73% 30.04 in 10.0 mi SSE 9.2 mph - N/A   Clear
11:53 AM 70.0 °F 59.0 °F 68% 30.04 in 10.0 mi SSE 5.8 mph - N/A   Clear
12:53 PM 73.0 °F 60.1 °F 64% 30.05 in 10.0 mi Variable 4.6 mph - N/A   Clear
1:53 PM 75.0 °F 61.0 °F 62% 30.04 in 10.0 mi Calm Calm - N/A   Clear
2:53 PM 75.9 °F 63.0 °F 64% 30.03 in 10.0 mi Variable 3.5 mph - N/A   Clear
3:53 PM 75.9 °F 63.0 °F 64% 30.03 in 10.0 mi Calm Calm - N/A   Clear
4:53 PM 75.0 °F 64.0 °F 69% 30.04 in 10.0 mi North 4.6 mph - N/A   Scattered Clouds
5:53 PM 71.1 °F 66.0 °F 84% 30.04 in 10.0 mi NNE 3.5 mph - 0.00 in Rain Light Rain
6:53 PM 70.0 °F 64.9 °F 84% 30.05 in 10.0 mi Calm Calm - 0.00 in   Clear
7:53 PM 69.1 °F 64.0 °F 84% 30.05 in 10.0 mi SE 3.5 mph - N/A   Clear
8:53 PM 68.0 °F 64.9 °F 90% 30.05 in 10.0 mi SE 4.6 mph - 0.00 in   Clear
9:53 PM 68.0 °F 64.9 °F 90% 30.06 in 10.0 mi East 3.5 mph - N/A   Clear
10:53 PM 66.9 °F 64.9 °F 93% 30.06 in 10.0 mi East 3.5 mph - N/A   Clear
11:53 PM 66.9 °F 64.9 °F 93% 30.06 in 10.0 mi North - - N/A   Clear